Find Starlink 33678

NORAD ID: 63509 Int'l Des: 2025-071 Owner: SPXS Country: US Constellation: starlink operational
LEOCIRCULAR

現在のビュー

3D地球を読み込み中...

About Starlink 33678

Starlink 33678 (NORAD 63509) is a starlink constellation satellite (v2 mini) launched Apr 7, 2025 by SPXS of US. It operates in LEO, CIRCULAR orbit with a mass of 575.00 kg.

次回通過

Passes for default location (London). Set your location on the main map for personalized predictions.

高度履歴

Loading altitude history...

軌道要素

1 63509U 25071S 26264.25004630 -.00023039 00000-0 -73252-3 0 9999
2 63509 53.1602 309.9839 0001329 84.1367 246.4315 15.31718305 5719
Epoch: Sep 21, 2026 • Age: 5 hours

現在のステータス

高度 474.3 km
遠地点 / 近地点 N/A
速度 7.63 km/s
衛星直下点 43.30°N, 86.32°W
打ち上げ日 Apr 7, 2025
運用期間 1.4 years
タイプ internet

技術仕様

分類 Payload
質量 575.00 kg
乾燥質量 530.00 kg
長さ 0.30 m
スパン 29.00 m
形状 ? Box + pan
製造者 SPXS
バスタイプ Starlink V2MO
フェーズステータス In Orbit
所有者/国 SPXS/US

Most Searched